Location: Julian California
(33.0790°N, 116.6010°W)
Time: 02:08:49
(UTC-07:00)

SPOT 1/Viking Rocket - Pass Details

Date: 12 July 2018
Orbit: 777 x 795 km, 98.6° (Epoch: 24 September)

Event Time Altitude Azimuth Distance (km) Brightness Sun altitude
Exits shadow 22:54:39 48° 254° (WSW) 1,005 4.1 -28.4°
Maximum altitude 22:54:49 49° 260° (W) 1,003 4.1 -28.4°
Drops below altitude 10° 22:59:49 10° 335° (NNW) 2,342 6.9 -28.9°
Sets 23:02:13 0° 341° (NNW) 3,277 7.9 -29.2°
